Dewpoint
70 73 76 76 76 75 75 74 73 72 71 71 71 71 71 70 72 73 72 71 70 69 70 70 71 69 68 68 68 68 67 65 66 66 67 68 68 67 68 67 68 65 67
70 72 77 76 75 75 75 74 73 72 72 72 71 70 70 70 72 72 72 71 70 69 69 70 71 70 68 67 68 68 66 65 65 65 66 70 70 68 67 67 67 65 66
68 71 73 76 76 75 74 74 74 73 71 73 71 71 71 69 71 72 72 71 70 69 69 70 70 70 67 67 67 67 65 65 67 68 70 67 64 66 66 66 66 67 67
65 71 71 76 76 75 75 75 74 73 72 71 72 71 70 70 69 71 72 72 70 69 69 69 69 69 67 66 66 65 63 64 66 69 62 64 63 66 65 65 66 66 67
62 68 72 76 76 76 75 75 75 73 72 71 71 71 70 70 69 69 71 72 71 69 69 69 69 68 68 66 66 64 63 65 68 67 63 63 63 63 64 66 65 65 66
63 70 75 76 76 76 74 75 75 74 73 72 72 72 71 71 70 69 70 72 71 70 69 69 69 69 68 66 65 64 63 64 67 61 63 65 62 64 65 66 65 66 65
66 72 73 76 76 75 75 75 75 75 74 73 72 73 73 72 72 71 70 70 72 71 69 69 69 69 68 69 66 65 64 65 65 60 63 62 62 64 65 65 65 64 64
61 70 72 75 76 75 75 74 73 73 74 73 74 74 73 73 72 72 72 72 72 72 70 69 69 69 68 68 68 67 65 66 62 60 63 63 65 63 64 63 65 63 64
63 63 70 72 73 75 75 75 75 74 74 74 74 74 74 74 73 73 73 72 72 72 72 71 69 68 68 69 70 67 67 68 64 61 62 63 66 63 63 63 64 64 64
61 61 61 63 68 71 71 73 73 73 74 74 74 74 74 74 74 73 73 73 72 72 72 72 71 69 69 69 70 68 69 68 64 60 63 64 65 63 62 63 63 63 64
58 57 57 58 61 65 69 72 73 73 73 73 73 73 72 71 69 71 71 72 73 73 73 72 72 71 71 70 71 70 70 66 62 61 63 67 65 64 62 62 62 62 63
53 53 53 53 55 58 60 68 68 70 72 72 71 70 70 69 68 67 69 71 72 72 72 72 72 71 70 67 67 70 68 66 63 61 64 68 65 64 62 62 61 61 62
48 50 48 48 49 51 53 66 67 66 69 68 68 69 71 70 69 69 68 70 70 71 70 71 70 70 68 67 65 65 65 63 61 62 66 68 66 65 62 62 61 61 62
41 43 44 46 43 43 49 50 53 63 66 67 68 67 69 69 69 68 69 69 68 70 69 67 68 68 67 66 65 64 64 62 61 63 65 68 67 65 63 62 62 60 61
35 38 40 40 42 40 40 45 47 51 55 57 60 65 67 68 68 69 68 69 68 67 68 66 68 68 65 65 63 65 63 62 62 63 65 68 67 66 64 64 63 61 60
36 38 38 39 43 43 42 43 45 47 50 53 57 58 59 64 65 66 67 68 68 67 67 67 67 67 66 64 60 59 62 60 62 63 65 65 67 67 65 65 63 62 60
34 35 37 38 41 42 42 45 47 45 46 49 51 53 55 58 60 63 64 64 67 68 67 66 67 66 66 66 62 58 59 60 62 64 65 65 65 66 66 65 63 63 61
31 33 35 35 36 38 40 42 44 46 46 47 44 45 50 56 56 58 61 63 65 66 67 66 66 65 64 65 64 63 64 62 63 65 66 65 64 63 66 66 64 63 62
30 31 33 33 34 37 39 41 42 41 43 44 44 44 47 49 49 50 56 58 62 64 65 66 65 65 64 63 63 63 63 63 63 65 65 65 63 63 63 65 65 64 61
31 32 33 34 36 37 40 41 42 43 44 44 44 43 44 47 49 49 51 54 58 59 62 64 64 65 64 62 64 63 63 64 63 63 64 65 64 64 63 63 62 63 62
28 33 34 36 37 37 39 37 38 39 41 42 44 46 43 45 48 50 50 50 55 58 58 61 63 63 62 63 60 60 61 62 62 63 64 64 64 63 63 63 63 62 61
26 31 33 34 35 37 39 38 39 38 40 41 43 40 42 43 44 44 47 49 51 55 57 59 60 61 62 64 60 60 57 59 58 59 62 63 63 63 62 63 62 62 62
24 30 32 35 35 35 36 38 40 39 40 40 40 41 42 42 43 44 43 45 50 52 57 58 59 60 60 62 62 60 56 55 55 57 56 60 62 61 61 61 60 60 61
21 24 33 34 35 35 35 38 37 38 38 39 40 40 41 40 41 43 44 44 45 50 55 57 59 59 59 59 62 63 61 58 55 51 53 54 56 57 58 58 58 58 59
25 34 35 35 35 37 38 37 39 38 40 40 41 40 39 40 40 40 42 41 42 48 54 56 56 58 58 58 59 59 60 60 58 53 50 50 51 52 53 55 56 57 57
27 33 35 37 37 37 38 38 38 38 39 40 39 40 39 39 39 40 41 43 45 50 51 53 56 56 58 58 60 60 59 58 56 53 52 51 48 49 50 51 53 56 58
Lifted_Index
-5 -5 -5 -5 -5 -5 -4 -4 -3 -3 -2 -2 -2 -2 -2 -2 -3 -3 -2 -1 -0 0 -0 -0 -0 1 2 2 2 2 3 3 3 3 2 2 2 2 2 3 3 3 3
-5 -5 -5 -5 -5 -5 -4 -4 -3 -3 -3 -3 -2 -2 -2 -2 -2 -3 -2 -1 -1 -0 -0 -1 -1 0 2 2 2 2 3 3 3 2 2 2 2 3 3 3 3 3 3
-4 -5 -5 -5 -5 -5 -5 -4 -4 -3 -3 -3 -3 -2 -2 -2 -2 -3 -3 -2 -1 -0 -0 -1 -1 0 1 2 2 2 3 3 3 2 2 2 3 3 3 3 3 3 3
-4 -4 -5 -5 -5 -5 -5 -5 -4 -4 -3 -3 -3 -2 -2 -2 -2 -2 -3 -2 -1 -1 -0 -1 -1 -0 1 1 2 2 3 3 2 2 2 3 3 3 3 3 3 3 3
-3 -4 -5 -5 -5 -5 -5 -5 -5 -4 -3 -3 -3 -3 -2 -2 -2 -2 -3 -3 -2 -1 -1 -1 -1 -1 -0 1 1 2 3 2 2 2 2 3 3 3 3 3 3 3 3
-4 -4 -5 -5 -5 -5 -5 -5 -5 -4 -4 -3 -3 -3 -3 -3 -2 -2 -2 -3 -3 -2 -1 -1 -1 -1 -0 0 1 2 2 2 2 2 2 2 3 3 3 3 3 3 3
-4 -5 -6 -6 -6 -6 -6 -5 -5 -5 -5 -4 -4 -4 -4 -4 -3 -3 -3 -3 -3 -3 -2 -1 -1 -1 -1 -0 0 1 2 2 2 2 2 2 3 3 2 2 2 2 3
-4 -5 -5 -6 -6 -6 -6 -5 -5 -5 -5 -5 -5 -5 -5 -4 -4 -4 -3 -3 -4 -3 -3 -2 -1 -1 -1 -1 -1 0 1 2 2 2 2 2 3 3 2 2 2 2 2
-3 -4 -5 -5 -5 -5 -5 -5 -5 -5 -5 -5 -5 -5 -5 -5 -5 -4 -4 -4 -4 -4 -3 -3 -2 -1 -1 -1 -1 -1 0 1 2 2 2 2 2 2 2 2 2 2 2
-3 -3 -3 -4 -4 -4 -4 -5 -5 -5 -5 -5 -5 -5 -5 -5 -4 -4 -4 -4 -4 -4 -4 -4 -3 -2 -2 -2 -2 -1 -1 1 2 2 2 2 2 2 2 2 2 2 2
-3 -2 -2 -2 -3 -3 -4 -4 -5 -5 -5 -5 -5 -5 -5 -4 -4 -4 -4 -4 -4 -4 -4 -4 -4 -3 -3 -2 -2 -2 -1 0 1 1 1 1 2 2 2 3 3 2 2
0 1 1 1 -0 -1 -2 -3 -4 -4 -5 -5 -5 -5 -5 -4 -4 -4 -4 -4 -4 -4 -4 -4 -4 -4 -3 -3 -2 -2 -1 -0 1 1 1 1 1 2 2 3 3 3 3
4 5 5 5 4 3 2 1 -1 -2 -3 -4 -4 -4 -4 -4 -4 -4 -4 -4 -3 -3 -3 -4 -4 -4 -3 -3 -2 -2 -1 -0 0 0 0 0 1 1 2 3 3 3 3
8 8 8 8 7 7 6 5 4 2 0 -1 -2 -3 -3 -4 -4 -4 -4 -4 -3 -3 -3 -3 -3 -4 -3 -3 -2 -2 -1 -1 0 0 -0 -0 0 1 2 3 3 3 3
9 9 10 9 9 9 9 8 8 7 5 3 1 -0 -1 -2 -3 -3 -3 -3 -3 -3 -2 -2 -3 -3 -3 -3 -3 -2 -1 -1 -0 0 -0 -0 -0 0 1 2 2 3 3
11 11 11 11 11 10 10 10 10 10 9 7 5 3 2 0 -1 -1 -2 -3 -3 -3 -3 -2 -3 -3 -3 -3 -2 -2 -1 -1 -0 -0 -0 -0 -0 -0 0 1 1 2 2
12 12 12 12 12 12 11 11 11 11 10 9 8 7 5 3 2 1 0 -1 -2 -2 -3 -3 -3 -3 -3 -3 -2 -2 -1 -1 -1 -1 -0 -0 -0 -0 -0 0 1 1 2
13 13 13 13 14 13 13 12 11 11 10 10 10 9 8 6 5 4 3 1 0 -1 -2 -3 -3 -3 -3 -2 -2 -2 -2 -1 -1 -1 -1 -1 -1 -0 -0 0 1 1 2
13 13 14 14 14 14 13 12 12 11 10 10 10 10 9 8 8 7 5 4 2 1 -1 -2 -2 -2 -2 -2 -2 -2 -2 -2 -2 -2 -2 -1 -1 -1 -0 0 1 2 2
13 13 13 13 13 13 12 12 11 11 10 10 9 9 9 8 8 8 7 5 4 3 1 0 -1 -2 -2 -2 -2 -2 -2 -2 -2 -2 -2 -1 -1 -1 -0 1 1 2 2
12 12 12 11 11 11 10 10 10 10 9 9 9 9 9 8 7 7 7 6 5 3 2 1 0 -1 -1 -2 -2 -2 -2 -2 -1 -1 -1 -1 -1 -1 -0 1 1 2 2
10 10 9 9 8 8 8 8 8 8 8 8 8 8 8 8 7 7 6 5 4 3 2 2 1 -0 -1 -2 -2 -1 -1 -1 -1 -1 -1 -1 -1 -1 -0 1 1 2 2
7 6 6 6 6 5 6 6 6 6 7 7 7 8 8 8 7 7 6 5 4 3 2 1 0 -0 -1 -1 -2 -1 -1 -1 -1 -1 -1 -1 -1 -1 -0 1 1 2 2
5 4 3 3 3 3 3 4 4 5 5 5 6 6 7 7 7 7 6 5 4 3 2 0 -0 -0 -1 -1 -2 -1 -1 -1 -1 -1 -1 -1 -1 -0 0 1 2 2 2
3 3 2 1 2 2 2 2 3 3 3 4 4 5 6 6 6 6 6 5 5 3 2 1 -0 -0 -1 -1 -1 -2 -2 -1 -0 0 -0 -1 -1 -0 1 1 2 2 3
3 2 1 1 1 1 1 1 2 2 2 3 3 4 5 6 6 6 6 5 5 3 2 1 0 -0 -1 -1 -1 -2 -2 -1 -0 1 0 -1 -1 -0 0 1 2 2 3